Location: Arcadia
(34.1397°N, 118.0353°W)
Time: 00:01:50
(UTC+00:00)

JB-3 - Pass Details

Date: 08 September 2024
Orbit: 504 x 557 km, 97.2° (Epoch: 13 October)

Event Time Altitude Azimuth Distance (km) Brightness Sun altitude
Rises 12:45:54 0° 175° (S) 2,621 7.7 -10.0°
Reaches altitude 10° 12:47:59 10° 178° (S) 1,747 6.8 -9.6°
Maximum altitude 12:51:43 62° 259° (W) 595 4.2 -8.8°
Drops below altitude 10° 12:55:33 10° 342° (NNW) 1,793 6.9 -8.1°
Sets 12:57:43 0° 345° (NNW) 2,698 7.8 -7.6°
